Location: Newark
(15.4608°S, 41.1635°W)
Time: 00:21:05
(UTC+00:00)

Vanguard 3 - Pass Details

Date: 02 August 2021
Orbit: 510 x 3260 km, 33.3° (Epoch: 20 September)

Event Time Altitude Azimuth Distance (km) Brightness Sun altitude
Rises 16:28:53 0° 264° (W) 3,192 10.5 49.1°
Reaches altitude 10° 16:31:17 10° 277° (W) 2,508 10.3 48.7°
Maximum altitude 16:36:15 26° 333° (NNW) 2,087 10.7 48.0°
Drops below altitude 10° 16:43:50 10° 26° (NNE) 3,937 11.0 46.8°
Sets 16:48:47 0° 36° (NE) 5,466 11.5 46.0°
